Location: Lugrin
(46.4033°N, 6.6674°E)
Time: 01:41:15
(UTC+00:00)

Meteor 2-5 Rocket - Pass Details

Date: 18 September 2020
Orbit: 833 x 912 km, 81.2° (Epoch: 31 October)

Event Time Altitude Azimuth Distance (km) Brightness Sun altitude
Rises 20:21:25 0° 346° (NNW) 3,416 7.6 -27.2°
Reaches altitude 10° 20:23:50 10° 343° (NNW) 2,485 6.8 -27.5°
Maximum altitude 20:29:23 63° 264° (W) 958 4.0 -28.3°
Enters shadow 20:30:19 55° 220° (SW) 1,034 4.0 -28.4°
